| time (UTC) | temp F | wind direction | speed knots | gust knots | rain 1hr in | rain 24hr in | rain mn in | humidity % | barometer mb |
| 20260506141942 | 68 | 130 | 6.1 | 0.0 | 0.00 | 0.00 | 0.00 | 42 | |
| 20260506131942 | 68 | 40 | 6.1 | 0.0 | 0.00 | 0.00 | 0.00 | 42 | |
| 20260506121941 | 68 | 0 | 4.3 | 0.0 | 0.00 | 0.00 | 0.00 | 45 | |
| 20260506111926 | 68 | 0 | 4.3 | 0.0 | 0.00 | 0.00 | 0.00 | 45 | |
| 20260506102128 | 64 | 0 | 1.7 | 0.0 | 0.00 | 0.00 | 0.00 | 55 | |
| 20260506091926 | 63 | 230 | 6.1 | 0.0 | 0.00 | 0.00 | 0.00 | 59 | |
| 20260506081925 | 61 | 280 | 7.8 | 0.0 | 0.00 | 0.00 | 0.00 | 63 | |
| 20260506071926 | 61 | 0 | 4.3 | 0.0 | 0.00 | 0.00 | 0.00 | 72 | |
| 20260506061928 | 57 | 260 | 7.8 | 0.0 | 0.00 | 0.00 | 0.00 | 76 | |
| 20260506042126 | 54 | 260 | 10.4 | 0.0 | 0.00 | 0.00 | 0.00 | 81 | |
| 20260506031927 | 52 | 250 | 7.8 | 0.0 | 0.00 | 0.00 | 0.00 | 87 | |
| 20260506021927 | 54 | 230 | 7.8 | 0.0 | 0.00 | 0.00 | 0.00 | 87 | |
| 20260506012031 | 54 | 230 | 4.3 | 0.0 | 0.00 | 0.00 | 0.00 | 93 | |
| 20260506001925 | 55 | 260 | 4.3 | 0.0 | 0.00 | 0.00 | 0.00 | 87 | |
| 20260505231925 | 55 | 310 | 7.8 | 0.0 | 0.00 | 0.00 | 0.00 | 87 | |
| 20260505221925 | 57 | 290 | 10.4 | 0.0 | 0.00 | 0.00 | 0.00 | 76 | |
| 20260505212025 | 61 | 120 | 4.3 | 0.0 | 0.00 | 0.00 | 0.00 | 59 | |
| 20260505201941 | 59 | 100 | 4.3 | 0.0 | 0.00 | 0.00 | 0.00 | 72 | |
| 20260505191958 | 59 | 120 | 4.3 | 0.0 | 0.00 | 0.00 | 0.00 | 77 | |
| 20260505181942 | 61 | 0 | 1.7 | 0.0 | 0.00 | 0.00 | 0.00 | 72 | |
| 20260505171926 | 61 | 320 | 6.1 | 0.0 | 0.00 | 0.00 | 0.00 | 72 | |
| 20260505162042 | 59 | 300 | 6.1 | 0.0 | 0.00 | 0.00 | 0.00 | 82 | |
| 20260505151941 | 63 | 170 | 10.4 | 0.0 | 0.00 | 0.00 | 0.00 | 63 |